Torna al catalogo

STARLINK-37721

AttivoComunicazioniSSO
NORAD 100220·PAYLOAD·🇺🇸 United States

Lanciato Aug 4, 2026 da Vandenberg Space Force Base

Loading…

Prossimi Passaggi (prossime 24 ore)

TLE

AggiornatoSource: Space-Track

Epoca: Sep 14, 2026, 22:34 UTC

1 A0220U 26177H   26257.94047747  .00043810  00000-0  80180-3 0  9997
2 A0220  97.2835 308.7427 0001114  88.8559 271.2820 15.49221435  6500

Traccia STARLINK-37721 in tempo reale con AllMySat

Download on the App Store